DLH4Y EBBR-EDDF

Flight info

Callsign DLH4Y
Flight time 0h 38m
Altitude 23000
Route SPI T180 NIVNU T847 IMCOM IMCOM1A
Aircraft A320/M-SDE3FGHIRWY/LB1

Departure

Time 2026-05-04 17:07
Airport Brussels Airport (EBBR)

Arrival

Time 2026-05-04 17:45
Airport Frankfurt Main Airport (EDDF)
Time Latitude Longitude Altitude Speed Heading
2026-05-04 16:47 50.90280 4.48147 117 ft 0 kts 155°
2026-05-04 16:57 50.90303 4.48130 117 ft 3 kts 151°
2026-05-04 16:58 50.90349 4.48064 117 ft 3 kts 93°
2026-05-04 16:58 50.90348 4.48045 118 ft 1 kts 65°
2026-05-04 16:59 50.90347 4.48042 118 ft 0 kts 65°
2026-05-04 17:00 50.90388 4.48188 119 ft 9 kts 66°
2026-05-04 17:01 50.90484 4.48518 117 ft 22 kts 66°
2026-05-04 17:01 50.90617 4.48974 117 ft 21 kts 65°
2026-05-04 17:02 50.90531 4.49218 121 ft 14 kts 156°
2026-05-04 17:02 50.90392 4.49444 122 ft 13 kts 146°
2026-05-04 17:03 50.90306 4.49420 125 ft 16 kts 198°
2026-05-04 17:03 50.90163 4.49357 126 ft 22 kts 194°
2026-05-04 17:03 50.89933 4.49380 135 ft 13 kts 195°
2026-05-04 17:04 50.89698 4.49280 149 ft 17 kts 195°
2026-05-04 17:04 50.89523 4.49171 159 ft 10 kts 194°
2026-05-04 17:05 50.89375 4.49117 165 ft 11 kts 184°
2026-05-04 17:05 50.89231 4.49306 175 ft 7 kts 124°
2026-05-04 17:06 50.89526 4.49480 161 ft 77 kts 14°
2026-05-04 17:06 50.90264 4.49773 125 ft 138 kts 13°
2026-05-04 17:07 50.92257 4.50876 1287 ft 155 kts 35°
2026-05-04 17:07 50.92802 4.51656 1603 ft 168 kts 50°
2026-05-04 17:07 50.93232 4.54211 2021 ft 204 kts 102°
2026-05-04 17:07 50.92487 4.56281 2345 ft 232 kts 127°
2026-05-04 17:08 50.91394 4.58340 2804 ft 256 kts 130°
2026-05-04 17:08 50.88634 4.62121 4475 ft 272 kts 161°
2026-05-04 17:08 50.86758 4.62590 5430 ft 275 kts 175°
2026-05-04 17:09 50.84841 4.62828 6357 ft 278 kts 175°
2026-05-04 17:09 50.82917 4.63265 7190 ft 282 kts 162°
2026-05-04 17:09 50.81158 4.64641 8055 ft 284 kts 142°
2026-05-04 17:10 50.78987 4.69761 9783 ft 288 kts 106°
2026-05-04 17:10 50.76815 4.79557 10799 ft 350 kts 114°
2026-05-04 17:11 50.75762 4.83043 11290 ft 360 kts 115°
2026-05-04 17:11 50.74673 4.86636 12017 ft 365 kts 115°
2026-05-04 17:11 50.72458 4.93937 13823 ft 373 kts 114°
2026-05-04 17:12 50.71332 4.97658 14649 ft 379 kts 114°
2026-05-04 17:12 50.69038 5.05225 16037 ft 384 kts 115°
2026-05-04 17:13 50.65526 5.16748 17810 ft 394 kts 116°
2026-05-04 17:14 50.61907 5.28596 19315 ft 405 kts 117°
2026-05-04 17:14 50.60675 5.32614 19798 ft 408 kts 117°
2026-05-04 17:14 50.58192 5.40661 20749 ft 414 kts 118°
2026-05-04 17:15 50.57340 5.43412 21064 ft 416 kts 118°
2026-05-04 17:15 50.54791 5.51657 21982 ft 422 kts 118°
2026-05-04 17:16 50.52206 5.60013 22831 ft 429 kts 118°
2026-05-04 17:16 50.49328 5.73812 22983 ft 457 kts 109°
2026-05-04 17:17 50.48438 5.78613 22980 ft 459 kts 109°
2026-05-04 17:17 50.45737 5.93056 22986 ft 459 kts 109°
2026-05-04 17:18 50.44827 5.97859 22981 ft 459 kts 109°
2026-05-04 17:18 50.43000 6.07465 22986 ft 460 kts 109°
2026-05-04 17:19 50.41171 6.17080 22969 ft 460 kts 109°
2026-05-04 17:19 50.39322 6.26677 22958 ft 460 kts 109°
2026-05-04 17:20 50.37464 6.36266 22974 ft 460 kts 109°
2026-05-04 17:20 50.36135 6.46010 22966 ft 464 kts 97°
2026-05-04 17:20 50.35844 6.51052 22959 ft 464 kts 97°
2026-05-04 17:21 50.35229 6.61126 22958 ft 465 kts 98°
2026-05-04 17:21 50.34566 6.71188 22973 ft 465 kts 98°
2026-05-04 17:22 50.34231 6.76221 22977 ft 465 kts 98°
2026-05-04 17:22 50.33897 6.81259 22982 ft 465 kts 99°
2026-05-04 17:23 50.30862 6.95443 22815 ft 459 kts 118°
2026-05-04 17:23 50.29514 6.99960 21974 ft 457 kts 118°
2026-05-04 17:23 50.26858 7.08864 20812 ft 447 kts 117°
2026-05-04 17:24 50.25548 7.13242 20218 ft 442 kts 118°
2026-05-04 17:24 50.21685 7.26100 18523 ft 429 kts 117°
2026-05-04 17:25 50.20421 7.30296 17922 ft 425 kts 117°
2026-05-04 17:25 50.18088 7.38690 16813 ft 419 kts 114°
2026-05-04 17:26 50.16117 7.47209 15728 ft 414 kts 112°
2026-05-04 17:26 50.13258 7.59694 14128 ft 404 kts 113°
2026-05-04 17:27 50.11226 7.67776 13041 ft 395 kts 119°
2026-05-04 17:27 50.08262 7.74848 12476 ft 388 kts 128°
2026-05-04 17:28 50.05197 7.81726 11951 ft 385 kts 128°
2026-05-04 17:29 50.01206 7.92445 11158 ft 386 kts 108°
2026-05-04 17:29 50.01745 8.04847 10700 ft 393 kts 70°
2026-05-04 17:30 50.04489 8.16006 10324 ft 346 kts 71°
2026-05-04 17:31 50.06121 8.22750 10091 ft 322 kts 72°
2026-05-04 17:31 50.08385 8.32157 9543 ft 302 kts 72°
2026-05-04 17:32 50.09859 8.38279 9274 ft 301 kts 72°
2026-05-04 17:33 50.12046 8.47370 8896 ft 299 kts 72°
2026-05-04 17:33 50.12780 8.50445 8764 ft 299 kts 72°
2026-05-04 17:34 50.14940 8.59493 7768 ft 296 kts 72°
2026-05-04 17:34 50.15652 8.62490 7396 ft 294 kts 72°
2026-05-04 17:35 50.17762 8.71376 6294 ft 287 kts 72°
2026-05-04 17:35 50.19135 8.77174 5534 ft 282 kts 71°
2026-05-04 17:35 50.19808 8.80017 5239 ft 278 kts 71°
2026-05-04 17:36 50.20472 8.82828 5032 ft 275 kts 71°
2026-05-04 17:36 50.21129 8.85627 5012 ft 275 kts 71°
2026-05-04 17:36 50.21787 8.88434 5017 ft 275 kts 71°
2026-05-04 17:36 50.22445 8.91238 5018 ft 274 kts 71°
2026-05-04 17:37 50.23027 8.94066 5017 ft 273 kts 83°
2026-05-04 17:37 50.22887 8.96971 5020 ft 269 kts 111°
2026-05-04 17:37 50.21923 8.99322 5017 ft 249 kts 140°
2026-05-04 17:37 50.20454 9.00480 5017 ft 233 kts 172°
2026-05-04 17:38 50.18871 9.00228 5017 ft 231 kts 204°
2026-05-04 17:38 50.17564 8.98800 5019 ft 231 kts 221°
2026-05-04 17:38 50.16398 8.97076 5019 ft 232 kts 224°
2026-05-04 17:38 50.15250 8.95315 5017 ft 231 kts 224°
2026-05-04 17:39 50.13130 8.91589 5013 ft 232 kts 249°
2026-05-04 17:39 50.12910 8.89091 5019 ft 234 kts 265°
2026-05-04 17:39 50.12558 8.86709 4993 ft 219 kts 247°
2026-05-04 17:40 50.11994 8.84524 4782 ft 217 kts 247°
2026-05-04 17:40 50.11453 8.82327 4490 ft 218 kts 248°
2026-05-04 17:40 50.10928 8.80116 4180 ft 216 kts 249°
2026-05-04 17:40 50.10421 8.77965 3873 ft 207 kts 249°
2026-05-04 17:41 50.09932 8.75895 3584 ft 200 kts 250°
2026-05-04 17:41 50.09459 8.73895 3307 ft 194 kts 250°
2026-05-04 17:41 50.09004 8.71975 3061 ft 190 kts 250°
2026-05-04 17:41 50.08549 8.70052 2784 ft 189 kts 250°
2026-05-04 17:42 50.08098 8.68150 2503 ft 184 kts 251°
2026-05-04 17:42 50.07666 8.66333 2255 ft 173 kts 251°
2026-05-04 17:42 50.07273 8.64640 2077 ft 158 kts 252°
2026-05-04 17:42 50.06893 8.63055 1821 ft 156 kts 251°
2026-05-04 17:43 50.06501 8.61450 1491 ft 157 kts 252°
2026-05-04 17:43 50.06125 8.59890 1283 ft 151 kts 253°
2026-05-04 17:43 50.05771 8.58368 1045 ft 149 kts 252°
2026-05-04 17:43 50.05409 8.56865 878 ft 147 kts 252°
2026-05-04 17:44 50.05058 8.55373 677 ft 146 kts 251°
2026-05-04 17:44 50.04709 8.53903 463 ft 144 kts 250°
2026-05-04 17:44 50.04366 8.52481 351 ft 131 kts 250°
2026-05-04 17:44 50.04107 8.51372 328 ft 85 kts 250°
2026-05-04 17:45 50.03965 8.50771 322 ft 43 kts 251°
2026-05-04 17:45 50.03858 8.50428 321 ft 34 kts 230°
2026-05-04 17:45 50.03711 8.50213 319 ft 20 kts 218°
2026-05-04 17:45 50.03631 8.50248 323 ft 12 kts 97°
2026-05-04 17:46 50.03646 8.50359 325 ft 10 kts 70°
2026-05-04 17:46 50.03683 8.50514 325 ft 21 kts 69°
2026-05-04 17:46 50.03735 8.50730 332 ft 21 kts 69°
2026-05-04 17:46 50.03788 8.50949 332 ft 22 kts 69°
2026-05-04 17:47 50.03846 8.51178 333 ft 23 kts 68°
2026-05-04 17:47 50.03902 8.51425 334 ft 25 kts 70°
2026-05-04 17:47 50.03965 8.51687 336 ft 26 kts 69°
2026-05-04 17:47 50.04017 8.51903 336 ft 7 kts 70°
2026-05-04 17:48 50.04030 8.51959 335 ft 4 kts 70°
2026-05-04 17:48 50.04038 8.51993 335 ft 2 kts 70°
2026-05-04 17:48 50.04052 8.52054 338 ft 12 kts 71°
2026-05-04 17:48 50.04076 8.52161 348 ft 9 kts 70°
2026-05-04 17:49 50.04094 8.52238 350 ft 6 kts 69°
2026-05-04 17:49 50.04112 8.52309 353 ft 11 kts 69°
2026-05-04 17:49 50.04135 8.52402 350 ft 8 kts 69°
2026-05-04 17:49 50.04151 8.52465 351 ft 5 kts 69°
2026-05-04 17:50 50.04159 8.52500 351 ft 2 kts 69°
2026-05-04 17:50 50.04170 8.52544 356 ft 9 kts 70°
2026-05-04 17:50 50.04189 8.52626 357 ft 7 kts 70°
2026-05-04 17:50 50.04201 8.52681 355 ft 4 kts 70°
2026-05-04 17:51 50.04215 8.52738 353 ft 11 kts 69°
2026-05-04 17:51 50.04247 8.52876 359 ft 14 kts 70°
2026-05-04 17:51 50.04279 8.53006 356 ft 12 kts 69°
2026-05-04 17:51 50.04310 8.53133 358 ft 18 kts 70°
2026-05-04 17:52 50.04362 8.53351 372 ft 21 kts 69°
2026-05-04 17:52 50.04398 8.53555 375 ft 18 kts 84°
2026-05-04 17:52 50.04411 8.53747 375 ft 17 kts 84°
2026-05-04 17:52 50.04423 8.53926 375 ft 16 kts 84°
2026-05-04 17:53 50.04434 8.54087 375 ft 14 kts 84°
2026-05-04 17:53 50.04443 8.54233 375 ft 13 kts 85°
2026-05-04 17:53 50.04451 8.54370 373 ft 13 kts 85°
2026-05-04 17:53 50.04440 8.54535 369 ft 19 kts 105°
2026-05-04 17:54 50.04360 8.54724 360 ft 22 kts 139°
2026-05-04 17:54 50.04212 8.54828 355 ft 26 kts 161°
2026-05-04 17:54 50.04061 8.54914 356 ft 17 kts 158°
2026-05-04 17:54 50.04024 8.55037 353 ft 13 kts 72°
2026-05-04 17:55 50.04057 8.55177 362 ft 18 kts 69°
2026-05-04 17:55 50.04112 8.55402 357 ft 24 kts 69°
2026-05-04 17:55 50.04172 8.55657 360 ft 26 kts 70°
2026-05-04 17:55 50.04236 8.55921 356 ft 26 kts 68°
2026-05-04 17:56 50.04311 8.56071 357 ft 16 kts 355°
2026-05-04 17:56 50.04408 8.56034 358 ft 13 kts
2026-05-04 17:56 50.04450 8.56109 360 ft 8 kts 67°
2026-05-04 17:56 50.04485 8.56161 357 ft 6 kts 24°
2026-05-04 17:57 50.04509 8.56182 362 ft 5 kts 39°
2026-05-04 17:57 50.04538 8.56220 360 ft 1 kts 40°
2026-05-04 17:57 50.04540 8.56223 360 ft 0 kts 40°